Location: Campillo
(40.8621°N, 4.2488°W)
Time: 00:14:16
(UTC+00:00)

USA 308 - Pass Details

Date: 28 September 2021
Orbit: 566 x 573 km, 54.0° (Epoch: 23 September)

Event Time Altitude Azimuth Distance (km) Brightness Sun altitude
Rises 21:05:22 0° 308° (NW) 2,772 7.5 -33.8°
Reaches altitude 10° 21:07:38 10° 306° (NW) 1,873 6.3 -34.2°
Enters shadow 21:08:48 18° 304° (NW) 1,421 5.5 -34.4°
